Change the Weather History Date:

Monday, February 18, 2013

  Actual Average Record
Temperature  
Mean Temperature 36 °F 27 °F  
Max Temperature 55 °F 35 °F 61 °F (1981)
Min Temperature 17 °F 19 °F -9 °F (2006)
Degree Days  
Heating Degree Days 29 38  
Month to date heating degree days 681 730  
Since 1 July heating degree days 4377 4666  
Cooling Degree Days 0 0  
Month to date cooling degree days 0 0  
Year to date cooling degree days 0 0  
Moisture  
Dew Point 30 °F    
Average Humidity 72    
Maximum Humidity 92    
Minimum Humidity 51    
Precipitation  
Precipitation 0.28 in 0.04 in 0.65 in (1951)
Month to date precipitation 1.21 0.78  
Year to date precipitation 3.09 1.97  
Snow  
Snow 0.40 in - - ()
Month to date snowfall 0.9  
Since 1 July snowfall 9.4  
Snow Depth 0.00 in    
Sea Level Pressure  
Sea Level Pressure 29.61 in    
Wind  
Wind Speed 19 mph (West)    
Max Wind Speed 35 mph    
Max Gust Speed 44 mph    
Visibility 6 miles    
Events Fog , Rain , Snow    
T = Trace of Precipitation, MM = Missing Value Source: NWS Daily Summary

Daily Weather History Graph

Daily Weather History Graph

Search for Another Location

Airport or City:

Trip Planner

Search our weather history database for the weather conditions in past years. The results will help you decide how hot, cold, wet, or windy it might be!

Date:

Astronomy

Feb. 18, 2013 Rise Set
Actual Time 6:53 AM CST 5:39 PM CST
Civil Twilight 6:24 AM CST 6:08 PM CST
Nautical Twilight 5:52 AM CST 6:40 PM CST
Astronomical Twilight 5:20 AM CST 7:12 PM CST
Moon 11:23 AM CST (2/18) 1:35 AM CST (2/18)
Length of Visible Light 11h 43m
Length of Day
10h 46m
First Quarter, 58% of the Moon is Illuminated
Feb 18
First Quarter
Feb 25
Full
Mar 4
Last Quarter
Mar 11
New
Mar 19
First Quarter

Hourly Weather History & Observations

Time (CST) Temp. Windchill Dew Point Humidity Pressure Visibility Wind Dir Wind Speed Gust Speed Precip Events Conditions
12:52 AM 33.1 °F 21.5 °F 23.0 °F 66% 29.83 in 10.0 mi SSE 19.6 mph - N/A   Clear
1:52 AM 33.1 °F 21.9 °F 24.1 °F 70% 29.78 in 10.0 mi SSE 18.4 mph - N/A   Clear
2:52 AM 33.1 °F 22.6 °F 25.0 °F 72% 29.76 in 10.0 mi SSE 16.1 mph - N/A   Clear
4:52 AM 33.1 °F 24.4 °F 26.1 °F 75% 29.70 in 10.0 mi SSE 11.5 mph - N/A   Clear
5:52 AM 33.1 °F 24.9 °F 27.0 °F 78% 29.69 in 10.0 mi SSE 10.4 mph - N/A   Clear
6:52 AM 35.1 °F 25.9 °F 28.0 °F 76% 29.68 in 10.0 mi South 13.8 mph - N/A   Clear
8:52 AM 42.1 °F 32.8 °F 30.9 °F 65% 29.64 in 10.0 mi South 21.9 mph 29.9 mph N/A   Clear
9:52 AM 45.0 °F 37.4 °F 33.1 °F 63% 29.63 in 10.0 mi South 18.4 mph 28.8 mph N/A   Clear
10:52 AM 51.1 °F - 35.1 °F 54% 29.60 in 10.0 mi SSW 19.6 mph 27.6 mph N/A   Clear
11:52 AM 55.0 °F - 37.9 °F 53% 29.57 in 10.0 mi SSW 18.4 mph 31.1 mph N/A   Clear
12:52 PM 53.1 °F - 39.0 °F 59% 29.55 in 10.0 mi SSW 12.7 mph - N/A   Overcast
1:52 PM 48.9 °F - 41.0 °F 74% 29.54 in 7.0 mi WSW 9.2 mph - 0.00 in Rain Light Rain
2:42 PM 46.4 °F 43.5 °F 42.8 °F 87% 29.51 in 5.0 mi SW 5.8 mph - 0.01 in Rain Light Rain
2:52 PM 44.1 °F 38.1 °F 39.9 °F 85% 29.53 in 6.0 mi WNW 11.5 mph 17.3 mph 0.02 in Rain Light Rain
3:49 PM 39.2 °F 31.6 °F 37.4 °F 93% 29.52 in 2.5 mi WNW 12.7 mph - 0.09 in Rain Rain
3:52 PM 39.9 °F 32.5 °F 37.0 °F 89% 29.54 in 2.5 mi WNW 12.7 mph - 0.10 in Rain Rain
4:07 PM 39.2 °F 29.6 °F 35.6 °F 87% 29.52 in 3.0 mi NW 19.6 mph 26.5 mph 0.03 in Rain Rain
4:17 PM 37.4 °F 27.5 °F 35.6 °F 93% 29.52 in 3.0 mi WNW 18.4 mph 26.5 mph 0.04 in Rain Rain
4:47 PM 35.6 °F 25.5 °F 32.0 °F 87% 29.53 in 2.5 mi NW 17.3 mph 27.6 mph 0.06 in Rain Light Rain
4:52 PM 35.1 °F 24.8 °F 32.0 °F 89% 29.55 in 2.0 mi NW 17.3 mph 27.6 mph 0.07 in Snow Light Snow
4:57 PM 33.8 °F 23.2 °F 32.0 °F 93% 29.53 in 1.5 mi NW 17.3 mph 27.6 mph 0.01 in Snow Light Snow
5:04 PM 33.8 °F 24.3 °F 32.0 °F 93% 29.54 in 1.2 mi NW 13.8 mph - 0.02 in Snow Light Snow
5:14 PM 33.8 °F 24.8 °F 30.2 °F 87% 29.54 in 0.8 mi NW 12.7 mph - 0.03 in Snow Light Snow
5:30 PM 33.8 °F 23.5 °F 32.0 °F 93% 29.55 in 1.0 mi NW 16.1 mph - 0.05 in Snow Light Snow
5:42 PM 33.8 °F 22.8 °F 30.2 °F 87% 29.55 in 0.8 mi NW 18.4 mph 27.6 mph 0.06 in Snow Light Snow
5:52 PM 32.0 °F 18.9 °F 30.9 °F 96% 29.58 in 0.5 mi NW 24.2 mph 34.5 mph 0.07 in Fog , Snow Snow
9:45 PM 24.8 °F 7.1 °F 17.6 °F 74% 29.70 in 10.0 mi WNW 33.4 mph 39.1 mph 0.00 in   Overcast
9:52 PM 23.0 °F 5.4 °F 17.1 °F 78% 29.72 in 9.0 mi WNW 29.9 mph 40.3 mph 0.00 in   Overcast
10:52 PM 19.9 °F 1.5 °F 14.0 °F 78% 29.76 in 10.0 mi West 28.8 mph 36.8 mph 0.00 in   Overcast
11:52 PM 18.0 °F -1.4 °F 10.9 °F 74% 29.78 in 10.0 mi WNW 29.9 mph 38.0 mph N/A   Overcast